CAPE
7 6 6 7 6 6 5 7 7 6 4 4 6 7 6 5 3 2 2 2 2 4 6 4 7 6 7 6 6 4 7 0 0 0 0 0 0 0 0 0 192 2850 2371 1372 1339 1180 781 860 820 631 648 535 796 545 471 542 415 249 157 176 62 25 29 204 179 190 269 83 330 361 283 381 474 770 948 1561 1253 1419 1035 964 1590 1039 546 372 678 862 869 878
8 8 6 6 7 6 6 6 6 4 4 7 7 6 3 2 0 1 2 2 3 2 4 6 6 7 7 5 4 4 0 0 0 0 0 0 0 0 0 0 1181 2657 1560 1112 1123 775 741 887 904 837 773 645 708 693 572 539 460 338 329 209 117 17 53 238 332 144 198 171 322 428 400 541 650 930 867 1200 1073 1092 676 800 844 805 268 492 684 760 726 896
9 8 8 6 7 8 5 5 6 4 5 6 6 4 2 1 1 2 1 3 4 3 4 5 6 7 6 4 6 2 2 0 0 0 0 0 0 0 0 192 2168 2328 790 822 771 442 510 741 950 902 831 725 729 869 614 562 442 414 382 359 262 241 264 113 274 177 134 302 111 259 364 531 727 829 744 1128 1055 844 409 452 670 752 120 493 671 693 700 946
6 7 6 4 5 6 5 5 6 4 5 5 5 2 2 2 1 2 3 3 3 3 3 6 5 7 6 3 5 4 2 0 0 0 0 0 0 0 3 958 2399 1855 297 524 478 330 478 888 987 958 831 915 950 816 793 687 410 637 431 273 274 355 373 355 253 319 322 250 454 469 595 685 742 762 1652 1040 826 562 266 411 553 557 118 435 634 780 1154 965
5 6 7 7 4 7 6 6 5 5 4 5 4 2 2 3 1 0 4 3 3 4 4 4 6 5 6 4 0 0 0 0 0 0 39 12 0 0 116 1960 2454 462 93 241 110 268 728 957 891 998 843 758 1050 877 868 843 777 672 490 562 360 536 473 550 467 416 469 411 165 571 637 847 890 1052 1277 1000 590 406 161 262 812 223 76 388 498 1039 1191 1010
8 5 8 8 6 7 7 6 5 4 4 5 5 2 3 2 1 2 2 4 2 4 5 5 6 4 3 7 0 1 0 0 0 0 540 104 38 44 967 2724 1903 1 22 49 154 345 668 831 770 868 1129 1004 1136 972 1236 1050 898 698 650 691 692 680 696 662 636 400 527 478 591 545 606 739 1031 1034 1386 969 592 595 871 768 768 174 47 229 601 1042 1266 1118
6 6 6 6 7 6 6 5 6 4 3 5 4 2 4 1 1 1 2 2 3 4 4 5 7 4 1 2 3 0 0 0 0 792 858 123 188 920 2449 2493 450 10 26 2 78 333 693 784 746 872 1173 1194 1180 1215 1285 1342 1060 827 596 624 945 1008 863 797 641 466 769 462 485 499 517 698 856 584 1101 981 1048 1024 797 539 677 63 27 336 756 1032 1244 1201
7 5 6 6 5 6 4 5 6 4 4 6 3 3 2 1 1 1 2 3 3 2 5 4 5 1 0 0 0 0 0 0 0 463 690 216 1056 2465 2568 1349 10 60 76 111 146 259 982 882 798 1166 1295 1236 1202 1198 1350 1446 1191 1050 795 784 794 959 888 889 630 600 524 543 357 439 554 437 704 1096 550 848 774 567 540 564 575 0 28 430 717 946 1135 1174
6 7 7 4 5 5 4 4 6 4 3 4 2 2 2 1 1 1 2 3 2 3 5 5 3 0 0 0 0 0 0 0 0 338 60 784 1856 2254 1752 404 38 118 199 459 627 575 1305 1299 1146 1350 1352 1222 1315 1355 1745 1338 942 1109 1056 865 979 991 920 775 490 596 760 698 407 522 323 305 444 1172 595 686 662 618 810 502 520 1 28 403 647 830 991 1035
7 8 8 4 5 4 5 5 5 4 5 3 2 2 2 0 1 2 2 3 2 3 5 4 1 5 1 0 0 0 0 354 0 0 16 850 2227 2086 854 163 144 238 379 641 1110 1204 1401 1558 1426 1465 1456 1192 1225 1333 1784 1044 320 1100 1074 777 613 718 942 786 755 664 790 685 497 584 565 279 633 1264 447 503 558 731 1280 538 508 0 20 278 526 687 825 864
7 6 5 4 4 4 5 4 4 4 5 4 1 3 2 1 1 1 2 3 2 5 4 3 4 0 0 0 0 0 193 163 0 0 9 1630 2120 1557 806 162 324 558 527 654 1112 1377 1336 1577 1547 1517 1338 1303 1042 826 1443 1271 1185 1014 786 758 559 562 860 778 708 517 820 933 487 869 802 787 1159 850 900 606 636 1235 1471 644 569 10 4 66 305 562 636 669
8 6 5 4 5 5 4 4 4 4 4 2 1 1 1 2 1 1 1 2 3 4 2 0 3 2 0 0 0 0 0 90 0 3 23 1775 1728 1313 658 176 391 799 824 756 804 1315 1395 1449 1487 1453 1324 894 1079 890 628 1138 1278 1010 785 697 525 484 629 673 689 644 791 1099 512 666 612 178 1042 706 889 1071 1714 2118 1594 800 614 20 0 6 54 410 471 506
7 6 4 5 4 4 5 3 3 4 3 2 1 0 1 1 1 0 1 2 2 1 4 0 2 2 0 0 0 0 0 0 18 1 22 1312 934 793 465 353 277 806 971 963 906 1119 1474 1531 1509 1519 1399 1208 1275 1194 679 1020 1179 1037 858 687 467 238 289 572 684 848 806 1023 876 1022 480 320 972 706 894 1325 1624 1677 1497 753 581 16 0 0 2 289 376 404
7 6 5 4 4 4 5 4 4 5 3 1 0 0 1 1 1 1 2 3 2 2 2 3 0 0 0 0 0 0 0 0 110 21 80 549 615 498 84 250 307 577 955 1124 1059 1127 1485 1564 1632 1641 1544 1431 1335 622 582 889 1245 1325 809 426 554 384 522 439 699 846 815 961 1096 1438 523 434 607 923 1027 1209 1283 1275 980 595 528 98 56 0 0 72 303 346
7 5 4 3 4 4 4 4 4 4 2 2 0 1 1 0 0 0 2 0 0 2 2 3 0 0 0 0 0 245 365 8 74 35 22 2 250 35 202 275 369 379 756 1179 1354 1292 1370 1462 1525 1552 1566 1201 1043 894 932 624 362 958 194 87 437 378 464 927 752 641 913 931 837 759 346 520 660 541 1116 1238 1440 742 624 537 362 148 116 0 0 0 6 156
7 3 6 3 4 4 4 3 4 4 2 0 0 0 0 0 0 0 1 0 1 1 1 0 0 0 0 0 193 290 129 21 0 42 63 0 0 0 196 360 382 407 499 930 1462 1533 1534 1469 1149 1274 1406 1418 1338 1228 932 393 0 228 88 4 489 538 571 779 1036 636 679 984 989 787 350 563 276 410 997 1184 1362 895 685 583 281 172 46 0 0 0 0 0
5 6 7 5 4 4 3 4 4 2 2 0 1 0 0 0 0 0 0 2 3 0 0 0 0 0 0 0 0 31 28 0 6 54 106 2 0 0 0 299 377 459 438 514 1130 1412 1587 1386 1288 1218 1181 1112 1055 905 515 103 9 0 0 51 120 584 676 842 1248 918 782 1039 1066 956 458 667 669 790 830 1289 1280 861 697 719 416 0 0 2 0 0 0 0
5 7 9 8 5 4 3 4 3 2 1 1 0 0 0 0 1 0 2 1 0 0 0 0 0 0 0 0 0 0 0 0 8 40 62 0 0 0 0 286 391 463 469 424 504 724 954 1068 973 1053 1038 1053 946 627 289 105 4 0 0 0 0 6 840 674 907 1041 771 718 953 1013 766 637 638 728 726 941 1331 946 826 744 506 165 0 0 5 0 0 0
5 5 6 11 6 4 4 3 3 2 1 1 0 0 0 0 0 0 0 0 0 0 0 0 0 0 0 0 0 0 0 0 0 33 24 0 0 0 0 251 420 457 438 422 492 429 667 712 829 871 773 727 576 419 338 106 3 0 0 0 0 0 233 727 861 1061 825 641 740 839 881 770 741 711 654 794 1250 1019 748 713 644 304 0 0 19 1 0 0
4 5 7 11 9 4 4 4 2 2 2 0 0 0 0 0 0 0 0 0 0 0 0 0 0 0 0 0 0 0 0 0 0 0 0 0 0 0 0 2 432 433 399 432 474 496 591 622 685 764 736 597 501 372 149 146 80 7 0 0 0 0 0 250 702 1061 827 622 555 681 769 826 771 738 667 738 1173 1122 811 659 556 559 105 0 19 37 0 159
4 5 9 8 6 5 4 6 3 1 1 0 0 0 0 0 0 0 0 0 0 0 0 0 0 0 0 0 0 0 0 0 0 0 0 0 0 0 0 60 327 481 392 372 466 601 537 546 570 606 598 543 458 424 395 94 30 18 1 0 0 0 0 142 805 1098 903 378 325 471 593 601 626 618 553 667 1137 1168 949 652 587 623 397 171 16 48 337 364
4 6 7 6 6 4 4 3 2 1 0 0 0 0 0 0 0 0 0 0 0 0 0 0 0 0 0 0 0 0 0 0 0 0 0 0 0 0 0 4 22 346 348 392 434 561 566 500 478 456 440 440 421 409 408 393 383 338 19 0 0 0 0 1175 1226 1049 907 436 475 503 478 481 501 444 681 722 886 1039 1010 810 562 539 542 529 485 436 455 436
3 3 3 6 5 6 4 5 0 0 0 0 0 0 0 0 0 0 0 0 0 0 0 0 0 0 0 0 0 0 0 0 0 0 0 0 0 0 0 0 0 0 280 396 456 496 522 450 480 487 558 557 566 532 491 430 206 40 1 0 0 0 214 101 1363 1015 873 529 810 717 604 474 471 501 736 705 769 868 1032 930 744 573 573 576 557 506 516 500
2 2 3 4 6 3 5 0 0 0 0 0 0 0 0 0 0 0 0 0 0 0 0 0 0 0 0 0 0 0 0 0 0 0 0 0 0 0 0 0 0 0 22 355 425 439 300 373 490 472 482 499 479 424 67 24 13 0 0 0 0 0 88 9 1123 1202 915 962 1004 878 869 801 692 683 743 856 817 841 980 1008 861 589 494 527 527 556 572 548
4 3 3 4 4 12 0 0 0 0 0 0 0 0 0 0 0 0 0 0 0 0 0 0 0 0 0 0 0 0 0 0 0 0 0 0 0 0 0 0 0 0 0 312 386 371 320 348 402 448 408 355 233 17 4 5 2 0 0 0 0 0 258 1154 1348 1327 1016 1138 1131 756 488 414 487 685 804 827 861 846 946 1020 955 800 571 616 508 541 586 562
3 5 4 7 8 5 0 0 0 0 0 0 0 0 0 0 0 0 0 0 0 0 0 0 0 0 0 0 0 0 0 0 0 0 0 0 0 0 0 4 0 0 0 11 359 378 365 401 439 406 362 2 0 0 0 0 0 0 0 0 0 0 393 1247 1416 822 709 532 677 798 465 355 0 301 743 846 890 840 868 946 997 888 764 667 716 514 505 560
2 2 6 5 5 9 0 0 0 0 0 0 0 0 0 0 0 0 0 0 0 0 0 0 0 0 0 0 0 0 0 0 0 0 0 0 0 0 0 0 0 0 0 0 0 8 0 54 242 0 0 0 0 9 2 0 2 2 0 0 0 104 674 1079 988 450 652 602 23 773 676 381 63 0 426 812 919 861 827 872 930 970 834 782 722 785 637 480
2 2 4 6 5 12 1 1 0 0 0 0 0 0 0 0 0 0 0 0 0 0 0 0 0 0 0 0 0 0 0 0 0 0 0 0 0 0 0 0 0 0 0 0 51 6 0 0 0 0 0 0 0 10 2 0 6 0 0 0 0 50 525 922 648 444 251 121 44 176 546 381 1 0 65 763 895 918 905 860 865 931 960 859 752 774 832 759
3 4 4 6 7 4 3 1 2 0 0 0 0 0 0 0 0 0 0 0 0 0 0 0 0 0 0 0 0 0 0 0 0 0 0 0 0 0 0 0 0 0 0 0 0 0 0 0 0 0 0 0 12 4 1 0 0 0 0 0 491 549 698 820 585 508 324 68 133 37 100 112 2 1 401 654 841 831 882 935 924 899 935 958 866 802 834 916
1 2 3 3 6 0 0 3 0 0 0 0 0 0 0 0 0 0 0 0 0 0 0 0 0 0 0 0 0 0 0 0 0 0 0 0 3 0 0 0 0 0 0 0 0 0 0 0 0 0 0 0 24 12 3 0 0 0 0 0 196 660 739 656 626 585 484 392 323 152 33 9 0 0 248 465 692 703 739 824 915 960 958 947 943 869 837 889
0 0 3 5 2 0 0 0 0 0 0 0 0 0 0 0 0 0 0 0 0 0 0 0 0 0 0 0 0 0 0 0 0 0 0 0 0 0 0 0 0 0 0 0 0 0 0 0 0 0 0 4 33 20 0 5 17 0 1 0 0 1 450 454 549 486 410 294 50 7 86 0 0 0 0 320 323 474 636 715 812 923 982 996 966 960 894 856
0 0 0 2 0 2 0 0 0 0 0 0 0 0 0 0 0 0 0 0 0 0 0 0 0 0 0 0 0 0 0 0 0 0 0 0 0 0 0 0 0 0 0 0 0 0 0 0 0 0 9 40 58 41 16 20 34 9 5 0 2 3 6 12 279 163 280 230 1 11 28 16 5 0 0 3 188 140 476 573 640 760 885 948 959 940 921 881
0 0 1 0 2 0 0 0 0 0 0 0 0 0 0 0 0 0 0 0 0 0 0 0 0 0 0 0 0 0 0 0 0 0 0 0 0 0 0 0 0 0 0 0 0 0 0 0 0 0 0 30 63 50 48 13 45 25 1 17 10 4 9 16 124 0 0 0 0 53 212 293 46 0 0 0 0 75 374 466 485 549 685 808 918 939 915 913
0 0 0 0 0 0 0 0 0 0 0 0 0 0 0 0 0 360 0 0 0 0 0 0 0 0 0 0 0 0 0 0 0 0 0 0 0 0 0 0 0 0 0 0 0 0 0 0 0 0 0 9 77 72 81 44 26 24 33 1 3 1 2 0 18 145 12 0 0 176 68 9 27 46 0 0 0 0 105 413 442 441 496 605 762 851 896 927
0 0 0 0 1 0 0 0 0 0 0 0 0 0 0 0 0 0 0 0 0 0 0 0 0 0 0 0 0 0 0 0 0 0 0 0 0 0 0 0 0 0 0 0 0 0 0 0 0 0 0 0 78 45 19 12 8 11 0 0 1 0 76 29 0 11 6 0 2 112 27 0 8 0 0 0 0 0 94 260 462 445 423 461 562 684 780 836
0 0 0 0 0 0 0 0 0 0 0 0 0 0 0 0 0 0 0 0 0 0 0 0 0 0 0 0 0 0 0 0 0 0 0 0 0 0 0 0 0 0 0 0 0 0 0 0 0 0 0 31 61 35 21 10 13 5 0 2 72 18 0 0 7 8 0 0 0 0 0 0 0 0 0 0 0 0 41 145 402 458 425 441 480 558 644 723
0 0 0 0 0 0 0 0 0 0 0 0 0 0 0 0 0 0 0 0 0 0 0 0 0 0 0 0 0 0 0 0 0 0 0 0 0 0 0 0 0 0 0 0 0 0 0 0 0 0 0 48 74 47 20 13 0 0 0 9 2 1 55 0 2 0 0 0 1 0 0 0 0 0 0 0 0 0 66 111 382 452 471 475 498 544 610 658
0 0 0 0 0 0 0 0 0 0 0 0 0 0 0 0 0 0 0 0 0 0 0 0 0 0 0 0 0 0 0 0 0 0 0 0 0 0 0 0 0 0 0 0 0 0 0 0 0 0 0 23 39 46 32 25 4 17 39 9 2 203 18 0 0 0 0 0 0 0 0 0 0 0 0 0 0 0 40 88 292 459 510 510 524 564 615 666
0 0 0 0 0 0 0 0 0 0 0 0 0 0 0 0 0 0 0 0 0 0 0 0 0 0 0 0 0 0 0 0 0 0 0 0 0 0 0 0 0 0 0 0 0 0 0 0 0 0 0 0 16 31 57 36 12 4 0 16 0 0 0 0 0 0 0 0 0 0 0 0 0 0 0 0 0 0 30 65 229 465 503 539 548 573 637 676
0 0 0 0 0 0 0 0 0 0 0 0 0 0 0 0 0 0 0 0 0 0 0 0 0 0 0 0 0 0 0 0 0 0 0 0 0 0 0 0 0 0 0 0 0 0 0 0 0 0 0 0 26 36 42 23 0 0 8 30 14 0 12 0 0 0 0 29 0 0 1 0 0 0 0 0 0 0 77 133 272 435 507 539 568 601 627 684
0 0 0 0 0 0 0 0 0 0 0 0 0 0 0 0 0 0 0 0 0 0 0 0 0 0 0 0 0 0 0 0 0 0 0 0 0 0 0 0 0 0 0 0 0 0 0 0 0 0 0 0 17 46 1 0 0 0 0 14 37 0 0 0 0 0 0 0 0 0 1 0 0 0 0 0 0 0 25 143 209 420 503 568 602 624 632 670
0 0 0 0 0 0 0 0 0 0 0 0 0 0 0 0 0 0 0 0 0 0 0 0 0 0 0 0 0 0 0 0 0 0 0 0 0 0 0 0 0 0 0 0 0 0 0 0 0 0 0 0 11 1 0 0 0 0 0 0 4 23 5 12 0 0 0 0 0 0 0 0 0 0 0 0 0 0 3 56 144 190 485 538 571 601 633 662
0 0 0 0 0 0 0 0 0 0 0 0 0 0 0 0 0 0 0 0 0 0 0 0 0 0 0 0 0 0 0 0 0 0 0 0 0 0 0 0 0 0 0 0 0 0 3 0 0 0 0 0 0 0 0 0 0 8 1 0 1 16 0 15 8 12 2 2 0 0 0 0 0 0 0 0 0 0 0 6 85 182 446 506 530 553 615 655
0 0 0 0 0 0 0 0 0 0 0 0 0 0 0 0 0 0 0 0 0 0 0 0 0 0 0 0 0 0 0 0 0 0 0 0 0 0 0 0 0 0 0 0 0 0 0 0 0 0 0 0 0 0 0 26 10 38 69 29 6 0 0 13 35 19 2 5 0 0 0 0 0 0 0 0 0 0 0 5 44 386 430 471 500 544 563 604
0 0 0 0 0 0 0 0 0 0 0 0 0 0 0 0 0 0 0 0 0 0 0 0 0 0 0 0 0 0 0 0 0 0 0 0 0 0 0 0 0 0 0 0 16 0 0 0 0 0 0 0 0 0 0 34 59 64 60 80 27 15 0 18 44 8 0 0 0 0 0 0 0 0 1 0 0 0 0 0 9 372 444 451 503 506 532 552
0 0 0 0 0 0 0 0 0 0 0 0 0 0 0 0 0 0 0 0 0 0 0 0 0 0 0 0 0 0 0 0 0 0 0 0 0 0 0 0 0 0 0 597 251 0 0 0 0 0 0 0 0 0 0 23 40 20 40 52 62 28 2 2 22 0 0 0 0 0 0 0 0 0 3 62 0 0 0 0 269 370 379 448 467 498 516 535
0 0 0 0 0 0 0 0 0 0 0 0 0 0 0 0 0 0 0 0 0 0 0 0 0 0 0 0 0 0 0 1 0 166 101 0 0 0 0 0 0 0 71 1747 68 0 0 0 0 0 0 0 0 0 0 15 8 0 0 8 25 33 10 0 4 29 0 0 0 0 0 0 0 0 0 2 2 0 0 6 246 360 385 443 473 478 505 554
0 0 0 0 0 0 0 0 0 0 0 0 0 0 0 0 0 0 0 0 0 0 0 0 0 0 0 0 0 0 0 0 43 176 127 106 0 0 0 0 0 269 1212 1712 0 0 0 0 0 0 0 0 0 0 0 8 0 0 0 0 0 6 0 10 17 25 2 0 0 0 0 0 0 0 0 0 4 4 0 8 53 43 380 443 452 464 484 523
0 0 0 0 0 0 0 0 0 0 0 0 0 6 0 0 0 0 0 0 0 0 0 0 0 0 0 0 0 2 0 20 64 0 174 59 0 0 12 0 0 0 208 1022 0 0 0 0 0 0 0 0 0 0 0 0 0 0 0 0 0 0 0 4 10 7 0 0 0 0 0 0 0 0 0 0 54 216 436 345 121 231 304 348 417 444 471 500
0 0 0 0 0 0 0 0 0 0 0 4 0 0 0 0 0 0 0 0 0 0 0 0 0 0 0 0 0 0 0 0 1 180 18 199 130 206 204 0 6 0 0 522 262 0 0 0 380 0 0 0 0 0 0 0 0 0 0 0 0 0 0 0 0 0 0 0 0 0 0 0 0 0 137 1178 980 809 370 402 339 256 423 407 398 436 583 687
0 0 0 0 0 0 0 0 0 0 0 0 0 0 0 0 0 0 0 0 0 0 0 0 125 153 146 128 4 0 0 0 50 220 190 194 178 32 215 257 150 12 0 0 0 0 0 0 0 0 0 0 0 0 0 0 0 0 0 8 0 0 16 6 0 4 4 1 0 0 0 0 0 142 1555 1212 801 576 412 453 536 644 648 582 574 756 975 1265
0 0 0 0 0 0 0 0 0 0 0 0 0 0 0 0 0 0 0 0 0 0 0 16 85 151 179 198 177 104 97 176 191 226 248 209 227 237 204 283 202 174 19 0 0 24 0 0 0 0 0 0 0 0 0 2 0 0 0 21 0 0 0 0 18 27 6 0 0 0 0 0 18 835 937 1271 958 808 709 776 880 966 903 757 826 1055 1412 1518
Wind_Speed
nan nan nan nan nan nan nan nan nan nan nan nan nan nan nan nan nan nan nan nan nan nan nan nan nan nan nan nan nan nan nan nan nan nan nan nan nan nan nan nan 32 34 36 26 21 20 15 15 16 16 14 13 12 13 11 9 9 8 11 9 nan nan nan 11 11 13 16 nan 17 13 12 9 13 13 12 13 21 25 29 28 26 24 24 20 17 14 11 9
nan nan nan nan nan nan nan nan nan nan nan nan nan nan nan nan nan nan nan nan nan nan nan nan nan nan nan nan nan nan nan nan nan nan nan nan nan nan nan nan 32 38 34 27 26 19 19 14 16 18 16 15 15 14 15 9 8 11 10 5 3 nan nan 9 12 11 11 11 15 15 13 10 10 12 9 13 19 26 25 26 23 23 18 16 14 12 9 8
nan nan nan nan nan nan nan nan nan nan nan nan nan nan nan nan nan nan nan nan nan nan nan nan nan nan nan nan nan nan nan nan nan nan nan nan nan nan nan 30 33 40 35 30 23 24 23 21 18 18 15 15 17 15 14 10 10 9 7 4 1 2 3 6 8 6 7 10 10 12 11 10 8 9 9 11 20 27 20 21 23 21 13 12 11 8 7 6
nan nan nan nan nan nan nan nan nan nan nan nan nan nan nan nan nan nan nan nan nan nan nan nan nan nan nan nan nan nan nan nan nan nan nan nan nan nan nan 31 32 31 17 17 17 12 10 13 17 15 16 17 16 14 14 11 10 7 6 3 2 1 5 6 7 8 6 8 11 10 12 11 8 9 8 16 25 26 25 29 26 21 14 11 7 6 5 3
nan nan nan nan nan nan nan nan nan nan nan nan nan nan nan nan nan nan nan nan nan nan nan nan nan nan nan nan nan nan nan nan nan nan nan nan nan nan 26 27 31 22 nan 19 15 11 15 16 17 14 14 15 14 15 13 14 11 7 7 1 6 2 2 5 7 10 9 9 6 10 10 11 12 13 21 23 22 22 25 27 27 23 nan 9 7 5 4 4
nan nan nan nan nan nan nan nan nan nan nan nan nan nan nan nan nan nan nan nan nan nan nan nan nan nan nan nan nan nan nan nan nan nan 14 24 nan nan 29 29 30 nan nan nan 15 16 15 12 13 13 14 15 14 16 12 14 11 7 5 5 3 2 4 4 4 6 9 9 13 14 13 10 12 20 31 27 27 30 29 26 26 21 nan 11 9 7 6 5
nan nan nan nan nan nan nan nan nan nan nan nan nan nan nan nan nan nan nan nan nan nan nan nan nan nan nan nan nan nan nan nan nan 10 19 24 23 26 30 29 21 nan nan nan nan 16 13 15 11 12 12 12 13 13 12 9 11 7 8 4 1 2 4 3 2 3 8 11 12 11 12 15 20 25 31 26 27 27 28 27 22 nan nan 11 9 10 7 7
nan nan nan nan nan nan nan nan nan nan nan nan nan nan nan nan nan nan nan nan nan nan nan nan nan nan nan nan nan nan nan nan nan 11 21 26 22 26 29 20 nan nan nan 21 20 16 16 16 15 10 11 11 8 12 8 9 11 8 8 6 6 1 4 3 4 8 8 9 10 11 17 22 26 27 28 27 26 26 25 23 20 nan nan 14 9 10 11 8
nan nan nan nan nan nan nan nan nan nan nan nan nan nan nan nan nan nan nan nan nan nan nan nan nan nan nan nan nan nan nan nan nan 14 nan 22 21 23 23 16 nan 20 18 15 16 15 13 11 10 11 9 10 9 8 8 7 5 12 10 4 6 4 5 4 3 7 9 7 10 17 22 25 28 30 27 28 29 26 24 20 18 nan nan 14 12 9 10 9
nan nan nan nan nan nan nan nan nan nan nan nan nan nan nan nan nan nan nan nan nan nan nan nan nan nan nan nan nan nan nan 9 nan nan nan 22 21 20 16 16 16 18 18 15 14 16 13 11 14 12 5 8 7 8 8 7 5 8 4 4 9 6 2 7 0 0 5 6 11 19 25 26 31 32 29 28 31 28 23 20 18 nan nan 12 13 11 11 9
nan nan nan nan nan nan nan nan nan nan nan nan nan nan nan nan nan nan nan nan nan nan nan nan nan nan nan nan nan nan 10 15 nan nan nan 21 23 20 17 15 15 16 17 16 15 18 11 6 5 5 4 8 2 3 10 6 6 7 8 7 5 6 9 8 1 4 7 8 12 18 23 28 33 33 31 29 30 28 24 21 17 nan nan nan 12 10 11 12
nan nan nan nan nan nan nan nan nan nan nan nan nan nan nan nan nan nan nan nan nan nan nan nan nan nan nan nan nan nan nan nan nan nan nan 17 16 14 13 16 16 17 20 20 14 12 10 8 8 2 3 1 2 4 5 6 5 8 7 10 8 8 9 12 5 5 11 9 9 17 19 28 30 30 30 30 31 27 23 20 16 nan nan nan nan 10 11 13
nan nan nan nan nan nan nan nan nan nan nan nan nan nan nan nan nan nan nan nan nan nan nan nan nan nan nan nan nan nan nan nan nan nan nan 13 14 12 14 8 6 9 10 10 8 7 5 3 8 3 3 6 3 2 5 6 7 10 7 11 12 11 11 15 10 7 7 10 11 18 20 27 28 30 32 30 26 24 21 18 16 nan nan nan nan 10 11 13
nan nan nan nan nan nan nan nan nan nan nan nan nan nan nan nan nan nan nan nan nan nan nan nan nan nan nan nan nan nan nan nan 17 nan nan 13 16 12 nan 13 8 9 8 10 7 6 1 3 3 4 3 2 3 4 3 3 4 9 11 10 13 12 13 13 12 10 7 12 12 20 19 22 23 25 27 27 23 19 17 17 17 nan nan nan nan nan 10 12
nan nan nan nan nan nan nan nan nan nan nan nan nan nan nan nan nan nan nan nan nan nan nan nan nan nan nan nan nan 15 18 nan nan nan nan nan 17 nan 14 17 10 7 9 9 7 6 4 3 3 2 4 2 2 5 7 8 8 8 12 nan 14 12 14 14 10 13 9 14 13 15 16 15 17 22 21 20 20 19 19 19 19 16 13 nan nan nan nan 12
nan nan nan nan nan nan nan nan nan nan nan nan nan nan nan nan nan nan nan nan nan nan nan nan nan nan nan nan 22 21 19 nan nan nan nan nan nan nan 21 19 14 8 10 8 7 6 5 4 2 3 2 4 5 8 10 11 nan 11 nan nan 13 12 14 13 13 14 12 10 14 13 13 16 15 18 19 18 19 18 19 21 21 17 nan nan nan nan nan nan
nan nan nan nan nan nan nan nan nan nan nan nan nan nan nan nan nan nan nan nan nan nan nan nan nan nan nan nan nan nan nan nan nan nan 15 nan nan nan nan 21 13 12 10 9 10 12 8 6 5 6 6 5 7 8 10 12 nan nan nan nan 15 13 12 14 11 12 11 8 14 14 12 13 15 20 22 19 17 16 17 18 19 nan nan nan nan nan nan nan
nan nan nan nan nan nan nan nan nan nan nan nan nan nan nan nan nan nan nan nan nan nan nan nan nan nan nan nan nan nan nan nan nan nan nan nan nan nan nan 19 18 16 14 10 8 7 8 6 5 4 8 9 10 9 7 14 nan nan nan nan nan nan 16 14 12 14 9 13 10 12 15 19 20 20 23 20 17 16 15 16 17 15 nan nan nan nan nan nan
nan nan nan nan nan nan nan nan nan nan nan nan nan nan nan nan nan nan nan nan nan nan nan nan nan nan nan nan nan nan nan nan nan nan nan nan nan nan nan 22 22 19 10 11 10 7 9 6 11 13 9 5 5 3 8 18 nan nan nan nan nan nan 19 17 18 11 14 11 11 12 14 16 20 20 20 19 16 15 16 16 18 16 nan nan nan nan nan nan
nan nan nan nan nan nan nan nan nan nan nan nan nan nan nan nan nan nan nan nan nan nan nan nan nan nan nan nan nan nan nan nan nan nan nan nan nan nan nan nan 18 13 13 11 14 8 10 8 6 5 5 4 5 5 14 21 nan nan nan nan nan nan nan 20 16 13 12 6 14 14 15 15 17 16 17 16 15 14 13 12 14 15 13 nan nan nan nan 11
nan nan nan nan nan nan nan nan nan nan nan nan nan nan nan nan nan nan nan nan nan nan nan nan nan nan nan nan nan nan nan nan nan nan nan nan nan nan nan nan 17 12 9 16 14 9 8 5 5 2 5 5 10 11 14 nan nan nan nan nan nan nan nan 21 18 12 15 10 12 11 13 16 16 13 13 13 10 11 11 12 12 13 13 13 nan nan 11 12
nan nan nan nan nan nan nan nan nan nan nan nan nan nan nan nan nan nan nan nan nan nan nan nan nan nan nan nan nan nan nan nan nan nan nan nan nan nan nan nan nan 10 18 18 14 8 2 1 6 3 7 13 12 13 16 21 23 18 nan nan nan nan nan 19 16 15 16 11 12 10 13 17 15 13 10 8 8 11 12 13 13 13 14 13 12 11 10 11
nan nan nan nan nan nan nan nan nan nan nan nan nan nan nan nan nan nan nan nan nan nan nan nan nan nan nan nan nan nan nan nan nan nan nan nan nan nan nan nan nan nan 20 16 8 4 10 11 7 9 17 12 12 11 14 21 21 nan nan nan nan nan 17 21 20 16 17 14 12 13 15 16 13 12 12 8 6 9 11 12 13 13 13 13 12 11 10 12
nan nan nan nan nan nan nan nan nan nan nan nan nan nan nan nan nan nan nan nan nan nan nan nan nan nan nan nan nan nan nan nan nan nan nan nan nan nan nan nan nan nan nan 11 5 2 4 12 23 16 11 11 9 9 nan nan nan nan nan nan nan nan nan nan 19 18 18 18 10 8 9 13 12 12 12 11 8 9 9 9 12 13 15 16 16 16 15 15
nan nan nan nan nan nan nan nan nan nan nan nan nan nan nan nan nan nan nan nan nan nan nan nan nan nan nan nan nan nan nan nan nan nan nan nan nan nan nan nan nan nan nan 12 10 10 12 11 17 20 16 12 6 nan nan nan nan nan nan nan nan nan 14 12 8 11 16 19 17 10 8 12 12 15 15 10 8 11 10 8 11 11 13 16 19 20 19 20
nan nan nan nan nan nan nan nan nan nan nan nan nan nan nan nan nan nan nan nan nan nan nan nan nan nan nan nan nan nan nan nan nan nan nan nan nan nan nan nan nan nan nan nan 13 14 11 13 14 15 14 nan nan nan nan nan nan nan nan nan nan nan 11 7 10 12 15 15 16 12 10 13 nan 14 16 12 13 16 14 15 17 16 18 19 21 22 21 20
nan nan nan nan nan nan nan nan nan nan nan nan nan nan nan nan nan nan nan nan nan nan nan nan nan nan nan nan nan nan nan nan nan nan nan nan nan nan nan nan nan nan nan nan nan nan nan nan 12 nan nan nan nan nan nan nan nan nan nan nan nan 12 8 10 7 11 15 16 nan 12 7 9 nan nan 14 14 16 19 21 23 24 24 23 24 23 21 20 19
nan nan nan nan nan nan nan nan nan nan nan nan nan nan nan nan nan nan nan nan nan nan nan nan nan nan nan nan nan nan nan nan nan nan nan nan nan nan nan nan nan nan nan nan nan nan nan nan nan nan nan nan nan nan nan nan nan nan nan nan nan nan 11 9 8 11 14 12 nan 12 9 11 nan nan nan 10 14 20 26 26 27 26 25 23 22 20 19 18
nan nan nan nan nan nan nan nan nan nan nan nan nan nan nan nan nan nan nan nan nan nan nan nan nan nan nan nan nan nan nan nan nan nan nan nan nan nan nan nan nan nan nan nan nan nan nan nan nan nan nan nan nan nan nan nan nan nan nan nan 20 18 16 14 13 10 14 nan 17 nan 9 10 nan nan 11 11 14 20 23 25 25 23 21 19 18 18 17 15
nan nan nan nan nan nan nan nan nan nan nan nan nan nan nan nan nan nan nan nan nan nan nan nan nan nan nan nan nan nan nan nan nan nan nan nan nan nan nan nan nan nan nan nan nan nan nan nan nan nan nan nan nan nan nan nan nan nan nan nan 21 20 16 14 11 10 11 12 14 9 nan nan nan nan 7 3 15 19 17 18 18 18 17 17 16 15 14 13
nan nan nan nan nan nan nan nan nan nan nan nan nan nan nan nan nan nan nan nan nan nan nan nan nan nan nan nan nan nan nan nan nan nan nan nan nan nan nan nan nan nan nan nan nan nan nan nan nan nan nan nan nan nan nan nan nan nan nan nan nan nan 20 14 11 10 8 11 nan nan nan nan nan nan nan 14 13 13 12 16 17 16 15 14 12 13 13 12
nan nan nan nan nan nan nan nan nan nan nan nan nan nan nan nan nan nan nan nan nan nan nan nan nan nan nan nan nan nan nan nan nan nan nan nan nan nan nan nan nan nan nan nan nan nan nan nan nan nan nan nan nan nan nan nan nan nan nan nan nan nan nan nan 11 10 8 7 nan nan nan nan nan nan nan nan 15 11 10 13 14 14 15 13 12 11 10 10
nan nan nan nan nan nan nan nan nan nan nan nan nan nan nan nan nan nan nan nan nan nan nan nan nan nan nan nan nan nan nan nan nan nan nan nan nan nan nan nan nan nan nan nan nan nan nan nan nan nan nan nan nan nan nan nan nan nan nan nan nan nan nan nan 12 nan nan nan nan nan 2 8 nan nan nan nan nan nan 7 10 10 9 11 12 11 8 7 6
nan nan nan nan nan nan nan nan nan nan nan nan nan nan nan nan nan 14 nan nan nan nan nan nan nan nan nan nan nan nan nan nan nan nan nan nan nan nan nan nan nan nan nan nan nan nan nan nan nan nan nan nan nan nan nan nan nan nan nan nan nan nan nan nan nan 8 nan nan nan 7 nan nan nan nan nan nan nan nan 2 4 6 7 7 7 8 6 4 4
nan nan nan nan nan nan nan nan nan nan nan nan nan nan nan nan nan nan nan nan nan nan nan nan nan nan nan nan nan nan nan nan nan nan nan nan nan nan nan nan nan nan nan nan nan nan nan nan nan nan nan nan nan nan nan nan nan nan nan nan nan nan nan nan nan nan nan nan nan 11 nan nan nan nan nan nan nan nan nan 2 6 5 6 6 6 4 3 4
nan nan nan nan nan nan nan nan nan nan nan nan nan nan nan nan nan nan nan nan nan nan nan nan nan nan nan nan nan nan nan nan nan nan nan nan nan nan nan nan nan nan nan nan nan nan nan nan nan nan nan nan nan nan nan nan nan nan nan nan nan nan nan nan nan nan nan nan nan nan nan nan nan nan nan nan nan nan nan 5 7 3 3 5 3 3 3 3
nan nan nan nan nan nan nan nan nan nan nan nan nan nan nan nan nan nan nan nan nan nan nan nan nan nan nan nan nan nan nan nan nan nan nan nan nan nan nan nan nan nan nan nan nan nan nan nan nan nan nan nan nan nan nan nan nan nan nan nan nan nan nan nan nan nan nan nan nan nan nan nan nan nan nan nan nan nan nan 5 6 5 6 3 4 3 2 3
nan nan nan nan nan nan nan nan nan nan nan nan nan nan nan nan nan nan nan nan nan nan nan nan nan nan nan nan nan nan nan nan nan nan nan nan nan nan nan nan nan nan nan nan nan nan nan nan nan nan nan nan nan nan nan nan nan nan nan nan nan 18 nan nan nan nan nan nan nan nan nan nan nan nan nan nan nan nan nan nan 9 5 4 4 4 3 4 3
nan nan nan nan nan nan nan nan nan nan nan nan nan nan nan nan nan nan nan nan nan nan nan nan nan nan nan nan nan nan nan nan nan nan nan nan nan nan nan nan nan nan nan nan nan nan nan nan nan nan nan nan nan nan nan nan nan nan nan nan nan nan nan nan nan nan nan nan nan nan nan nan nan nan nan nan nan nan nan nan 3 2 4 4 4 3 4 2
nan nan nan nan nan nan nan nan nan nan nan nan nan nan nan nan nan nan nan nan nan nan nan nan nan nan nan nan nan nan nan nan nan nan nan nan nan nan nan nan nan nan nan nan nan nan nan nan nan nan nan nan nan nan nan nan nan nan nan nan nan nan nan nan nan nan nan nan nan nan nan nan nan nan nan nan nan nan nan 3 3 4 6 7 4 4 3 1
nan nan nan nan nan nan nan nan nan nan nan nan nan nan nan nan nan nan nan nan nan nan nan nan nan nan nan nan nan nan nan nan nan nan nan nan nan nan nan nan nan nan nan nan nan nan nan nan nan nan nan nan nan nan nan nan nan nan nan nan nan nan nan nan nan nan nan nan nan nan nan nan nan nan nan nan nan nan nan 3 2 6 9 8 3 2 3 7
nan nan nan nan nan nan nan nan nan nan nan nan nan nan nan nan nan nan nan nan nan nan nan nan nan nan nan nan nan nan nan nan nan nan nan nan nan nan nan nan nan nan nan nan nan nan nan nan nan nan nan nan nan nan nan nan nan nan nan nan nan nan nan nan nan nan nan nan nan nan nan nan nan nan nan nan nan nan nan nan 6 7 9 6 4 3 7 13
nan nan nan nan nan nan nan nan nan nan nan nan nan nan nan nan nan nan nan nan nan nan nan nan nan nan nan nan nan nan nan nan nan nan nan nan nan nan nan nan nan nan nan nan nan nan nan nan nan nan nan nan nan nan nan nan nan nan nan nan nan nan nan nan nan nan nan nan nan nan nan nan nan nan nan nan nan nan nan nan nan 8 6 4 3 4 9 11
nan nan nan nan nan nan nan nan nan nan nan nan nan nan nan nan nan nan nan nan nan nan nan nan nan nan nan nan nan nan nan nan nan nan nan nan nan nan nan nan nan nan nan nan nan nan nan nan nan nan nan nan nan nan nan nan nan nan nan nan nan nan nan nan nan nan nan nan nan nan nan nan nan nan nan nan nan nan nan nan nan 9 5 4 4 5 11 13
nan nan nan nan nan nan nan nan nan nan nan nan nan nan nan nan nan nan nan nan nan nan nan nan nan nan nan nan nan nan nan nan nan nan nan nan nan nan nan nan nan nan nan nan nan nan nan nan nan nan nan nan nan nan nan nan nan nan nan nan nan nan nan nan nan nan nan nan nan nan nan nan nan nan nan nan nan nan nan nan nan 6 3 2 6 10 12 10
nan nan nan nan nan nan nan nan nan nan nan nan nan nan nan nan nan nan nan nan nan nan nan nan nan nan nan nan nan nan nan nan nan nan nan nan nan nan nan nan nan nan nan 18 20 nan nan nan nan nan nan nan nan nan nan nan nan nan nan nan nan nan nan nan nan nan nan nan nan nan nan nan nan nan nan nan nan nan nan nan 4 9 3 1 5 6 8 9
nan nan nan nan nan nan nan nan nan nan nan nan nan nan nan nan nan nan nan nan nan nan nan nan nan nan nan nan nan nan nan nan nan 24 28 nan nan nan nan nan nan nan nan 21 nan nan nan nan nan nan nan nan nan nan nan nan nan nan nan nan nan nan nan nan nan nan nan nan nan nan nan nan nan nan nan nan nan nan nan nan 5 6 2 3 4 6 8 7
nan nan nan nan nan nan nan nan nan nan nan nan nan nan nan nan nan nan nan nan nan nan nan nan nan nan nan nan nan nan nan nan nan 27 32 27 nan nan nan nan nan 26 23 21 nan nan nan nan nan nan nan nan nan nan nan nan nan nan nan nan nan nan nan nan nan nan nan nan nan nan nan nan nan nan nan nan nan nan nan nan nan nan 8 7 9 10 11 10
nan nan nan nan nan nan nan nan nan nan nan nan nan nan nan nan nan nan nan nan nan nan nan nan nan nan nan nan nan nan nan nan nan nan 30 nan nan nan nan nan nan nan 30 25 nan nan nan nan nan nan nan nan nan nan nan nan nan nan nan nan nan nan nan nan nan nan nan nan nan nan nan nan nan nan nan nan nan 10 11 10 8 6 5 7 10 12 12 11
nan nan nan nan nan nan nan nan nan nan nan nan nan nan nan nan nan nan nan nan nan nan nan nan nan nan nan nan nan nan nan nan nan 29 nan 31 35 31 29 nan nan nan nan 25 24 nan nan nan 25 nan nan nan nan nan nan nan nan nan nan nan nan nan nan nan nan nan nan nan nan nan nan nan nan nan 19 18 14 14 13 9 5 6 7 8 11 13 13 14
nan nan nan nan nan nan nan nan nan nan nan nan nan nan nan nan nan nan nan nan nan nan nan nan 45 43 40 38 nan nan nan nan nan 23 26 29 29 nan 29 25 24 nan nan nan nan nan nan nan nan nan nan nan nan nan nan nan nan nan nan nan nan nan nan nan nan nan nan nan nan nan nan nan nan 18 20 18 15 12 8 9 9 7 8 11 13 14 16 17
nan nan nan nan nan nan nan nan nan nan nan nan nan nan nan nan nan nan nan nan nan nan nan nan nan 43 42 45 43 41 nan 34 29 26 28 27 27 26 25 24 24 25 nan nan nan nan nan nan nan nan nan nan nan nan nan nan nan nan nan nan nan nan nan nan nan nan nan nan nan nan nan nan nan 19 17 17 13 10 10 9 10 11 11 13 14 16 17 18
Wind_Direction
nan nan nan nan nan nan nan nan nan nan nan nan nan nan nan nan nan nan nan nan nan nan nan nan nan nan nan nan nan nan nan nan nan nan nan nan nan nan nan nan 347 339 332 329 334 336 336 341 338 341 346 3 5 4 341 326 324 316 303 264 nan nan nan 235 241 240 227 nan 242 253 262 252 264 268 250 244 232 197 175 165 163 167 163 160 175 189 194 173
nan nan nan nan nan nan nan nan nan nan nan nan nan nan nan nan nan nan nan nan nan nan nan nan nan nan nan nan nan nan nan nan nan nan nan nan nan nan nan nan 346 336 330 334 342 345 330 346 337 339 343 6 358 9 346 340 339 325 322 296 194 nan nan 235 223 211 219 215 241 250 261 247 250 258 254 252 220 186 170 150 152 161 168 181 187 198 199 170
nan nan nan nan nan nan nan nan nan nan nan nan nan nan nan nan nan nan nan nan nan nan nan nan nan nan nan nan nan nan nan nan nan nan nan nan nan nan nan 338 345 340 340 340 352 340 345 346 334 339 355 8 1 4 360 349 350 360 340 22 262 260 214 242 226 203 218 214 237 252 260 253 252 238 252 216 189 166 145 136 144 153 162 180 187 190 194 170
nan nan nan nan nan nan nan nan nan nan nan nan nan nan nan nan nan nan nan nan nan nan nan nan nan nan nan nan nan nan nan nan nan nan nan nan nan nan nan 341 343 340 329 331 334 319 293 313 334 349 1 21 7 2 1 356 4 336 343 23 296 158 184 238 213 200 201 213 210 223 254 258 240 243 190 173 168 149 139 143 151 147 153 177 178 175 177 131
nan nan nan nan nan nan nan nan nan nan nan nan nan nan nan nan nan nan nan nan nan nan nan nan nan nan nan nan nan nan nan nan nan nan nan nan nan nan 334 340 338 334 nan 324 318 310 318 329 344 3 14 20 13 5 15 351 16 340 29 7 287 330 107 206 181 193 204 205 209 230 246 240 215 198 161 148 150 140 138 145 150 149 nan 170 157 145 144 85
nan nan nan nan nan nan nan nan nan nan nan nan nan nan nan nan nan nan nan nan nan nan nan nan nan nan nan nan nan nan nan nan nan nan 279 312 nan nan 328 335 334 nan nan nan 326 323 318 333 346 13 26 29 16 15 360 360 360 49 45 54 65 29 148 237 170 187 221 214 217 203 207 210 183 170 156 152 154 153 156 153 148 147 nan 150 147 145 131 90
nan nan nan nan nan nan nan nan nan nan nan nan nan nan nan nan nan nan nan nan nan nan nan nan nan nan nan nan nan nan nan nan nan 226 281 301 303 317 324 329 327 nan nan nan nan 332 340 333 4 21 30 34 33 20 18 351 3 26 59 66 168 244 210 198 188 183 209 209 193 181 171 183 166 163 156 149 150 152 153 153 147 nan nan 150 146 130 117 94
nan nan nan nan nan nan nan nan nan nan nan nan nan nan nan nan nan nan nan nan nan nan nan nan nan nan nan nan nan nan nan nan nan 244 288 289 297 311 319 322 nan nan nan 337 333 338 338 339 4 14 38 30 8 358 2 346 5 31 62 66 26 306 195 163 163 201 188 197 188 167 176 167 169 160 152 142 138 148 150 148 154 nan nan 144 146 134 128 112
nan nan nan nan nan nan nan nan nan nan nan nan nan nan nan nan nan nan nan nan nan nan nan nan nan nan nan nan nan nan nan nan nan 271 nan 283 296 305 311 316 nan 331 330 331 336 330 336 3 350 13 44 42 38 20 351 339 39 29 44 56 30 345 195 142 179 197 166 169 182 172 181 166 156 151 147 143 138 142 150 152 157 nan nan 140 133 125 124 121
nan nan nan nan nan nan nan nan nan nan nan nan nan nan nan nan nan nan nan nan nan nan nan nan nan nan nan nan nan nan nan 237 nan nan nan 288 292 299 314 312 327 326 322 338 329 330 355 352 355 15 92 62 12 19 330 351 32 5 355 22 3 37 177 131 28 120 146 163 171 170 168 155 151 149 144 142 135 143 152 154 158 nan nan 131 133 131 127 124
nan nan nan nan nan nan nan nan nan nan nan nan nan nan nan nan nan nan nan nan nan nan nan nan nan nan nan nan nan nan 242 246 nan nan nan 293 298 306 323 319 323 323 322 330 346 345 338 312 315 300 99 68 42 354 329 6 352 7 8 12 50 77 118 102 66 118 134 158 164 159 162 153 145 146 141 141 138 142 150 154 156 nan nan nan 131 127 132 131
nan nan nan nan nan nan nan nan nan nan nan nan nan nan nan nan nan nan nan nan nan nan nan nan nan nan nan nan nan nan nan nan nan nan nan 294 302 308 291 317 326 326 328 335 346 339 341 305 330 321 61 90 30 350 9 337 8 16 30 72 60 69 114 104 87 108 137 153 143 145 155 147 145 140 139 142 148 147 149 152 155 nan nan nan nan 131 138 133
nan nan nan nan nan nan nan nan nan nan nan nan nan nan nan nan nan nan nan nan nan nan nan nan nan nan nan nan nan nan nan nan nan nan nan 259 249 254 245 261 272 252 254 276 323 326 322 278 304 25 137 165 129 340 341 4 28 37 71 68 82 90 98 108 128 122 138 143 136 141 147 140 139 133 137 148 152 151 154 151 151 nan nan nan nan 131 138 143
nan nan nan nan nan nan nan nan nan nan nan nan nan nan nan nan nan nan nan nan nan nan nan nan nan nan nan nan nan nan nan nan 259 nan nan 246 262 253 nan 255 242 231 237 248 262 312 44 166 186 152 232 128 168 271 258 107 49 66 79 78 73 77 79 88 98 95 123 124 139 137 143 145 140 133 136 145 155 153 150 149 148 nan nan nan nan nan 144 140
nan nan nan nan nan nan nan nan nan nan nan nan nan nan nan nan nan nan nan nan nan nan nan nan nan nan nan nan nan 226 266 nan nan nan nan nan 262 nan 246 259 264 236 237 232 232 245 305 30 89 140 174 210 238 210 157 119 100 83 98 nan 92 77 76 94 87 78 108 124 139 143 146 141 144 137 145 148 157 152 154 152 151 157 165 nan nan nan nan 135
nan nan nan nan nan nan nan nan nan nan nan nan nan nan nan nan nan nan nan nan nan nan nan nan nan nan nan nan 245 235 243 nan nan nan nan nan nan nan 255 257 253 235 229 219 218 226 240 244 252 269 224 189 145 168 147 141 nan 111 nan nan 86 85 84 95 75 93 117 119 127 131 139 158 155 145 143 154 159 154 160 157 156 157 nan nan nan nan nan nan
nan nan nan nan nan nan nan nan nan nan nan nan nan nan nan nan nan nan nan nan nan nan nan nan nan nan nan nan nan nan nan nan nan nan 242 nan nan nan nan 260 248 253 235 204 196 213 221 227 229 235 220 175 184 194 168 131 nan nan nan nan 88 83 82 85 95 76 92 95 98 109 127 130 148 154 151 156 159 158 158 155 155 nan nan nan nan nan nan nan
nan nan nan nan nan nan nan nan nan nan nan nan nan nan nan nan nan nan nan nan nan nan nan nan nan nan nan nan nan nan nan nan nan nan nan nan nan nan nan 247 246 259 247 217 210 212 237 231 239 207 213 195 199 198 162 115 nan nan nan nan nan nan 68 73 70 69 53 97 92 97 99 113 128 144 152 152 160 157 147 150 154 154 nan nan nan nan nan nan
nan nan nan nan nan nan nan nan nan nan nan nan nan nan nan nan nan nan nan nan nan nan nan nan nan nan nan nan nan nan nan nan nan nan nan nan nan nan nan 247 261 271 249 246 214 257 234 224 207 205 175 207 177 158 89 92 nan nan nan nan nan nan 85 77 70 69 29 57 87 80 88 96 113 128 145 154 156 155 145 155 158 156 nan nan nan nan nan nan
nan nan nan nan nan nan nan nan nan nan nan nan nan nan nan nan nan nan nan nan nan nan nan nan nan nan nan nan nan nan nan nan nan nan nan nan nan nan nan nan 249 244 253 257 234 233 249 245 218 209 167 157 158 129 93 99 nan nan nan nan nan nan nan 90 79 59 45 81 73 72 89 108 116 123 135 150 157 152 146 142 151 152 146 nan nan nan nan 137
nan nan nan nan nan nan nan nan nan nan nan nan nan nan nan nan nan nan nan nan nan nan nan nan nan nan nan nan nan nan nan nan nan nan nan nan nan nan nan nan 250 245 235 242 243 224 269 237 188 188 115 183 174 150 129 nan nan nan nan nan nan nan nan 99 78 54 46 52 86 89 98 100 107 125 137 153 155 133 135 137 140 143 144 144 nan nan 141 139
nan nan nan nan nan nan nan nan nan nan nan nan nan nan nan nan nan nan nan nan nan nan nan nan nan nan nan nan nan nan nan nan nan nan nan nan nan nan nan nan nan 252 236 236 223 222 230 166 170 174 192 209 168 146 136 132 131 126 nan nan nan nan nan 122 112 60 52 71 89 72 82 93 100 112 136 144 131 150 150 146 142 147 143 147 147 145 148 148
nan nan nan nan nan nan nan nan nan nan nan nan nan nan nan nan nan nan nan nan nan nan nan nan nan nan nan nan nan nan nan nan nan nan nan nan nan nan nan nan nan nan 241 246 253 207 176 169 117 210 223 211 179 157 150 137 126 nan nan nan nan nan 111 112 108 77 68 64 70 57 64 98 117 125 120 125 124 156 161 156 151 147 140 139 139 145 142 134
nan nan nan nan nan nan nan nan nan nan nan nan nan nan nan nan nan nan nan nan nan nan nan nan nan nan nan nan nan nan nan nan nan nan nan nan nan nan nan nan nan nan nan 258 244 201 142 197 224 232 224 213 166 165 nan nan nan nan nan nan nan nan nan nan 96 95 79 77 60 56 75 101 90 100 122 128 132 150 154 153 152 152 146 141 142 144 139 126
nan nan nan nan nan nan nan nan nan nan nan nan nan nan nan nan nan nan nan nan nan nan nan nan nan nan nan nan nan nan nan nan nan nan nan nan nan nan nan nan nan nan nan 244 221 178 169 150 200 199 214 213 180 nan nan nan nan nan nan nan nan nan 115 128 92 89 103 95 71 50 86 86 89 77 79 109 133 114 138 133 121 127 134 138 129 124 131 129
nan nan nan nan nan nan nan nan nan nan nan nan nan nan nan nan nan nan nan nan nan nan nan nan nan nan nan nan nan nan nan nan nan nan nan nan nan nan nan nan nan nan nan nan 222 203 198 199 196 187 203 nan nan nan nan nan nan nan nan nan nan nan 110 80 72 108 108 94 87 61 56 86 nan 87 81 90 88 89 119 110 106 109 114 119 119 121 120 117
nan nan nan nan nan nan nan nan nan nan nan nan nan nan nan nan nan nan nan nan nan nan nan nan nan nan nan nan nan nan nan nan nan nan nan nan nan nan nan nan nan nan nan nan nan nan nan nan 198 nan nan nan nan nan nan nan nan nan nan nan nan 142 117 87 82 113 105 102 nan 79 76 99 nan nan 87 73 81 90 96 100 104 107 109 110 113 114 116 113
nan nan nan nan nan nan nan nan nan nan nan nan nan nan nan nan nan nan nan nan nan nan nan nan nan nan nan nan nan nan nan nan nan nan nan nan nan nan nan nan nan nan nan nan nan nan nan nan nan nan nan nan nan nan nan nan nan nan nan nan nan nan 129 132 140 132 121 114 nan 103 112 112 nan nan nan 74 89 94 90 93 97 102 106 107 108 109 110 110
nan nan nan nan nan nan nan nan nan nan nan nan nan nan nan nan nan nan nan nan nan nan nan nan nan nan nan nan nan nan nan nan nan nan nan nan nan nan nan nan nan nan nan nan nan nan nan nan nan nan nan nan nan nan nan nan nan nan nan nan 182 180 174 162 152 143 132 nan 108 nan 93 115 nan nan 140 129 106 92 87 87 91 93 97 102 105 107 107 110
nan nan nan nan nan nan nan nan nan nan nan nan nan nan nan nan nan nan nan nan nan nan nan nan nan nan nan nan nan nan nan nan nan nan nan nan nan nan nan nan nan nan nan nan nan nan nan nan nan nan nan nan nan nan nan nan nan nan nan nan 185 181 173 161 162 140 146 130 108 99 nan nan nan nan 99 125 92 77 85 99 99 98 99 101 101 96 98 102
nan nan nan nan nan nan nan nan nan nan nan nan nan nan nan nan nan nan nan nan nan nan nan nan nan nan nan nan nan nan nan nan nan nan nan nan nan nan nan nan nan nan nan nan nan nan nan nan nan nan nan nan nan nan nan nan nan nan nan nan nan nan 168 159 146 161 152 125 nan nan nan nan nan nan nan 98 146 142 100 92 89 88 85 87 93 95 93 96
nan nan nan nan nan nan nan nan nan nan nan nan nan nan nan nan nan nan nan nan nan nan nan nan nan nan nan nan nan nan nan nan nan nan nan nan nan nan nan nan nan nan nan nan nan nan nan nan nan nan nan nan nan nan nan nan nan nan nan nan nan nan nan nan 149 148 133 118 nan nan nan nan nan nan nan nan 100 133 121 104 94 89 91 88 87 88 99 103
nan nan nan nan nan nan nan nan nan nan nan nan nan nan nan nan nan nan nan nan nan nan nan nan nan nan nan nan nan nan nan nan nan nan nan nan nan nan nan nan nan nan nan nan nan nan nan nan nan nan nan nan nan nan nan nan nan nan nan nan nan nan nan nan 126 nan nan nan nan nan 121 136 nan nan nan nan nan nan 94 101 105 100 96 95 97 104 108 108
nan nan nan nan nan nan nan nan nan nan nan nan nan nan nan nan nan 181 nan nan nan nan nan nan nan nan nan nan nan nan nan nan nan nan nan nan nan nan nan nan nan nan nan nan nan nan nan nan nan nan nan nan nan nan nan nan nan nan nan nan nan nan nan nan nan 117 nan nan nan 146 nan nan nan nan nan nan nan nan 67 107 149 152 133 120 122 130 104 94
nan nan nan nan nan nan nan nan nan nan nan nan nan nan nan nan nan nan nan nan nan nan nan nan nan nan nan nan nan nan nan nan nan nan nan nan nan nan nan nan nan nan nan nan nan nan nan nan nan nan nan nan nan nan nan nan nan nan nan nan nan nan nan nan nan nan nan nan nan 140 nan nan nan nan nan nan nan nan nan 293 245 217 195 188 174 141 95 72
nan nan nan nan nan nan nan nan nan nan nan nan nan nan nan nan nan nan nan nan nan nan nan nan nan nan nan nan nan nan nan nan nan nan nan nan nan nan nan nan nan nan nan nan nan nan nan nan nan nan nan nan nan nan nan nan nan nan nan nan nan nan nan nan nan nan nan nan nan nan nan nan nan nan nan nan nan nan nan 278 277 253 195 210 176 148 119 72
nan nan nan nan nan nan nan nan nan nan nan nan nan nan nan nan nan nan nan nan nan nan nan nan nan nan nan nan nan nan nan nan nan nan nan nan nan nan nan nan nan nan nan nan nan nan nan nan nan nan nan nan nan nan nan nan nan nan nan nan nan nan nan nan nan nan nan nan nan nan nan nan nan nan nan nan nan nan nan 282 283 241 200 178 149 153 127 60
nan nan nan nan nan nan nan nan nan nan nan nan nan nan nan nan nan nan nan nan nan nan nan nan nan nan nan nan nan nan nan nan nan nan nan nan nan nan nan nan nan nan nan nan nan nan nan nan nan nan nan nan nan nan nan nan nan nan nan nan nan 200 nan nan nan nan nan nan nan nan nan nan nan nan nan nan nan nan nan nan 240 221 177 114 125 132 144 135
nan nan nan nan nan nan nan nan nan nan nan nan nan nan nan nan nan nan nan nan nan nan nan nan nan nan nan nan nan nan nan nan nan nan nan nan nan nan nan nan nan nan nan nan nan nan nan nan nan nan nan nan nan nan nan nan nan nan nan nan nan nan nan nan nan nan nan nan nan nan nan nan nan nan nan nan nan nan nan nan 225 151 57 51 79 119 139 114
nan nan nan nan nan nan nan nan nan nan nan nan nan nan nan nan nan nan nan nan nan nan nan nan nan nan nan nan nan nan nan nan nan nan nan nan nan nan nan nan nan nan nan nan nan nan nan nan nan nan nan nan nan nan nan nan nan nan nan nan nan nan nan nan nan nan nan nan nan nan nan nan nan nan nan nan nan nan nan 347 167 130 70 63 98 120 131 356
nan nan nan nan nan nan nan nan nan nan nan nan nan nan nan nan nan nan nan nan nan nan nan nan nan nan nan nan nan nan nan nan nan nan nan nan nan nan nan nan nan nan nan nan nan nan nan nan nan nan nan nan nan nan nan nan nan nan nan nan nan nan nan nan nan nan nan nan nan nan nan nan nan nan nan nan nan nan nan 123 92 83 68 64 85 111 337 345
nan nan nan nan nan nan nan nan nan nan nan nan nan nan nan nan nan nan nan nan nan nan nan nan nan nan nan nan nan nan nan nan nan nan nan nan nan nan nan nan nan nan nan nan nan nan nan nan nan nan nan nan nan nan nan nan nan nan nan nan nan nan nan nan nan nan nan nan nan nan nan nan nan nan nan nan nan nan nan nan 121 80 74 50 21 337 336 351
nan nan nan nan nan nan nan nan nan nan nan nan nan nan nan nan nan nan nan nan nan nan nan nan nan nan nan nan nan nan nan nan nan nan nan nan nan nan nan nan nan nan nan nan nan nan nan nan nan nan nan nan nan nan nan nan nan nan nan nan nan nan nan nan nan nan nan nan nan nan nan nan nan nan nan nan nan nan nan nan nan 122 113 32 348 291 340 349
nan nan nan nan nan nan nan nan nan nan nan nan nan nan nan nan nan nan nan nan nan nan nan nan nan nan nan nan nan nan nan nan nan nan nan nan nan nan nan nan nan nan nan nan nan nan nan nan nan nan nan nan nan nan nan nan nan nan nan nan nan nan nan nan nan nan nan nan nan nan nan nan nan nan nan nan nan nan nan nan nan 117 106 31 348 342 356 6
nan nan nan nan nan nan nan nan nan nan nan nan nan nan nan nan nan nan nan nan nan nan nan nan nan nan nan nan nan nan nan nan nan nan nan nan nan nan nan nan nan nan nan nan nan nan nan nan nan nan nan nan nan nan nan nan nan nan nan nan nan nan nan nan nan nan nan nan nan nan nan nan nan nan nan nan nan nan nan nan nan 119 108 3 4 8 8 4
nan nan nan nan nan nan nan nan nan nan nan nan nan nan nan nan nan nan nan nan nan nan nan nan nan nan nan nan nan nan nan nan nan nan nan nan nan nan nan nan nan nan nan 189 203 nan nan nan nan nan nan nan nan nan nan nan nan nan nan nan nan nan nan nan nan nan nan nan nan nan nan nan nan nan nan nan nan nan nan nan 129 76 68 346 20 358 0 3
nan nan nan nan nan nan nan nan nan nan nan nan nan nan nan nan nan nan nan nan nan nan nan nan nan nan nan nan nan nan nan nan nan 185 180 nan nan nan nan nan nan nan nan 192 nan nan nan nan nan nan nan nan nan nan nan nan nan nan nan nan nan nan nan nan nan nan nan nan nan nan nan nan nan nan nan nan nan nan nan nan 79 89 88 339 312 308 307 313
nan nan nan nan nan nan nan nan nan nan nan nan nan nan nan nan nan nan nan nan nan nan nan nan nan nan nan nan nan nan nan nan nan 189 183 194 nan nan nan nan nan 183 183 193 nan nan nan nan nan nan nan nan nan nan nan nan nan nan nan nan nan nan nan nan nan nan nan nan nan nan nan nan nan nan nan nan nan nan nan nan nan nan 231 271 295 300 308 305
nan nan nan nan nan nan nan nan nan nan nan nan nan nan nan nan nan nan nan nan nan nan nan nan nan nan nan nan nan nan nan nan nan nan 195 nan nan nan nan nan nan nan 195 202 nan nan nan nan nan nan nan nan nan nan nan nan nan nan nan nan nan nan nan nan nan nan nan nan nan nan nan nan nan nan nan nan nan 173 175 191 211 248 284 288 292 303 302 290
nan nan nan nan nan nan nan nan nan nan nan nan nan nan nan nan nan nan nan nan nan nan nan nan nan nan nan nan nan nan nan nan nan 203 nan 204 198 209 206 nan nan nan nan 205 213 nan nan nan 210 nan nan nan nan nan nan nan nan nan nan nan nan nan nan nan nan nan nan nan nan nan nan nan nan nan 175 178 197 208 210 232 271 292 296 296 290 288 284 281
nan nan nan nan nan nan nan nan nan nan nan nan nan nan nan nan nan nan nan nan nan nan nan nan 214 212 219 218 nan nan nan nan nan 207 199 207 210 nan 213 205 211 nan nan nan nan nan nan nan nan nan nan nan nan nan nan nan nan nan nan nan nan nan nan nan nan nan nan nan nan nan nan nan nan 196 194 197 210 211 231 257 270 280 286 283 283 286 290 292
nan nan nan nan nan nan nan nan nan nan nan nan nan nan nan nan nan nan nan nan nan nan nan nan nan 225 222 220 218 215 nan 211 202 198 201 204 211 209 215 212 211 201 nan nan nan nan nan nan nan nan nan nan nan nan nan nan nan nan nan nan nan nan nan nan nan nan nan nan nan nan nan nan nan 207 215 202 207 212 233 251 246 251 266 276 282 288 291 291